www.pogodaiklimat.ru

Погода и климат >> Архив погоды >> Мексика >> Nueva Casas Grandes


ПОГОДА в Nueva Casas Grandes

  • Прогноз погоды в Nueva Casas Grandes
  • Монитор погоды в Nueva Casas Grandes
  • Климат города

АРХИВ ПОГОДЫ в Nueva Casas Grandes

Время (UTC), дата Ветер
(напр.,м/с)
 
Видим.   Явления Облачность Т
(С)
Тd
(С)
f
(%)
Тe
(С)
Тes
(С)
Комфортность P
(гПа)
Po
(гПа)
Тmin
(С)
Tmax
(С)
R
(мм)
R24
(мм)
S
(см)
06 16.01 штиль 0 2000 м ясно +5.8 +2.4 79 +5 +5 1010.5 852.1 -0.6 +22.0
09 16.01 штиль 0 6000 м ясно +3.6 +1.1 84 +3 +3 1013.4 852.6
12 16.01 Ю 2 6000 м ясно +1.6 -0.7 85 -2 -2 1018.1 854.3 +1.0 +22.0
15 16.01 Ю 3 20 км 9/0 1500 м
[As trans]
0.0 -4.0 74 -4 -4 1022.8 856.4
18 16.01 ЮВ 3 20 км мгла 9/0
[Ac trans Cs]
+2.8 -4.0 61 -1 +4 1024.9 857.5 -0.4 +3.2
21 16.01 ЮВ 3 19 км мгла 9/0 2000 м
[Ac trans]
+5.6 -3.8 51 +3 +5 1022.7 855.7
00 17.01 В 2 19 км мгла 1/0 2000 м
[Ac trans]
+4.8 -3.1 57 +3 +3 1022.1 855.5 -0.4 +6.4
03 17.01 Ю 1 2000 м ясно +1.0 -5.1 64 -0 -0 1021.4 855.3
06 17.01 штиль 0 2000 м ясно -0.6 -4.4 75 -2 -2 1021.8 855.3 -0.6 +6.4
09 17.01 штиль 0 6000 м ясно -2.6 -3.6 93 -4 -4 1024.5 856.6
15 17.01 штиль 0 20 км 5/0
[Ci]
-4.7 -6.1 90 -6 -5 1027.0 856.5
18 17.01 Ю 1 20 км 3/0 1500 м
[Ac trans Ci sp]
+4.6 +2.1 84 +3 +12 опасность
простуды
1025.8 855.8 -5.2 +5.2
21 17.01 ЮВ 3 20 км 1/0 2000 м
[Ac trans]
+9.4 +1.3 57 +8 +13 1021.4 853.5
00 18.01 ЮВ 2 20 км 1/1 1000 м
[Cu hum]
+8.0 -2.1 49 +1 +1 1018.9 852.9 -5.2 +10.8
03 18.01 штиль 0 6000 м 5/0
[Ac trans]
+2.4 -1.7 74 +2 +2 1019.0 854.3
06 18.01 штиль 0 6000 м ясно -0.6 -1.5 94 -2 -2 1019.9 854.8 -5.2 +10.8
09 18.01 штиль 0 6000 м ясно -3.0 -3.5 96 -4 -4 1020.9 854.3
12 18.01 штиль 0 6000 м ясно -4.0 -4.5 96 -5 -5 1022.4 853.8 -4.6 +10.8
15 18.01 штиль 0 20 км ясно -3.9 -5.3 90 -5 -4 1025.0 854.8
18 18.01 штиль 0 20 км ясно +7.5 -4.2 43 +7 +17 опасность
простуды
1024.0 854.5 -4.8 +8.0
21 18.01 СЗ 1 20 км мгла ясно +13.6 0.0 39 +14 +22 1018.6 852.0
00 19.01 В 1 20 км ясно +14.0 +2.1 44 +15 +15 1014.8 851.2 -4.8 +15.4
12 19.01 штиль 0 6000 м ясно -3.3 -4.6 91 -4 -4 1016.1 851.0 -3.3 +15.4
15 19.01 штиль 0 20 км 5/0
[Ci]
-0.6 -2.5 87 -2 -1 1018.3 851.1
18 19.01 ЮВ 1 20 км 4/0
[Ci]
+12.4 +6.7 68 +13 +21 1017.9 851.1 -3.3 +13.2
21 19.01 СВ 1 20 км 5/0
[Cs]
+19.2 +3.2 35 +21 +28 комфорт 1010.8 847.3
00 20.01 З 3 20 км 1/0
[Ci fib]
+19.6 +1.8 31 +20 +20 1006.7 846.8 -3.3 +20.8
12 20.01 штиль 0 6000 м ясно -1.4 -4.5 79 -2 -2 1008.8 846.9 -3.4 +20.8
15 20.01 штиль 0 20 км ясно -1.2 -2.7 90 -2 -1 1011.8 847.0
18 20.01 З 2 20 км ясно +12.4 -2.1 36 +12 +20 1012.5 847.0 -3.4 +15.2
21 20.01 З 4 20 км 4/0 2000 м
[Ac lent Ci sp]
+20.2 -1.3 23 +20 +24 1006.1 843.8
00 21.01 ЮЗ 3 20 км 5/0
[Cs]
+18.2 +1.2 32 +18 +19 1002.7 843.5 -3.4 +21.4
12 21.01 З 5 6000 м ясно +9.8 +6.2 78 +7 +7 1003.2 845.0 +8.5 +21.4
15 21.01 СЗ 3 6000 м ясно +4.0 +1.9 86 0 +1 1007.4 847.3
18 21.01 СЗ 4 20 км ясно +11.6 +5.2 65 +10 +15 1009.7 848.4 +3.2 +12.0
21 21.01 З 4 20 км ясно +14.0 -2.0 33 +13 +18 1007.4 846.6
00 22.01 СЗ 4 20 км 3/0
[Ci sp]
+11.0 -6.3 29 +9 +9 1008.1 847.4 +3.2 +14.7
09 22.01 штиль 0 6000 м ясно -1.2 -4.3 79 -2 -2 1016.3 851.6
12 22.01 штиль 0 6000 м ясно -4.4 -4.9 96 -6 -6 1019.5 852.3 -5.0 +14.7
15 22.01 Ю 2 20 км ясно -4.6 -7.8 78 -9 -8 1022.3 852.9
18 22.01 З 1 20 км 1/0
[Ci fib]
+5.6 +0.5 70 +5 +14 опасность
простуды
1022.2 853.1 -6.5 +6.0
21 22.01 В 2 20 км 1/0
[Cs]
+10.0 -4.6 35 +9 +16 1017.6 850.7
00 23.01 В 2 20 км 3/0
[Cs]
+10.0 -5.3 34 +9 +9 1014.9 850.2 -6.5 +12.0

 

Местоположение метеостанции Nueva Casas Grandes (Мексика): широта 30.37 долгота -107.90 высота над уровнем моря 1487 м.

В архиве по умолчанию представлена погода в Nueva Casas Grandes за последнюю неделю. Архивные данные за месяц целиком и за предыдущие месяцы, начиная с января 2011 года, Вы можете получить, выбрав интересующий диапазон дат из раскрывающегося списка и нажав кнопку "Ввод!".

Внимание! Время в таблицах - всемирное. Для получения местного времени необходимо прибавить поправку, которая в Nueva Casas Grandes равна -7 ч.

Смотрите также архив погоды в соседних городах и на ближайших метеорологических станциях:

Погода в Temosachic (Мексика) (158 км)
Погода в Pilares de Nacoz (Мексика) (171 км)
Погода в Chihuahua (Мексика) (256 км)
Погода в Chihuahua University (Мексика) (267 км)
Погода в Hermosillo la Magna (Мексика) (328 км)
Погода в Hermosillo (Мексика) (336 км)
Погода в Altar Son (Мексика) (379 км)
Погода в Ciudad Obregon (Мексика) (381 км)
Погода в Empalme (Мексика) (383 км)
Погода в Guaymas (Мексика) (398 км)

Пояснения к столбцам:

Ветер - указаны скорость ветра в м/с - средняя за 10 мин, порывы в срок и между сроками (в фигурных скобках) и направление, откуда дует ветер: С - северный, СВ - северо-восточный, В - восточный, ЮВ - юго-восточный, Ю - южный, ЮЗ - юго-западный, З - западный, СЗ - северо-западный.
Видимость - горизонтальная дальность видимости в метрах или километрах. При видимости от 1 до 10 км при отсутствии осадков обычно наблюдается дымка, при ухудшении видимости до 1 км и менее - туман. В сухую погоду видимость может ухудшаться дымом, пылью или мглою.
Явления - указаны атмосферные явления, наблюдавшиеся в срок или в последний час перед сроком; фигурными скобками обозначены явления, наблюдавшиеся между сроками (за 1-3 часа до срока); квадратными скобками обозначены град или гололедные отложения с указанием их диаметра в мм.
Облачность - указаны через наклонную черту общая и нижняя облачность в баллах и высота нижней границы облаков в метрах; квадратными скобками обозначены формы облаков: Ci - перистые, Cs - перисто-слоистые, Cc - перисто-кучевые, Ac - высококучевые, As - высокослоистые, Sc - слоисто-кучевые, Ns - слоисто-дождевые, Cu - кучевые, Cb - кучево-дождевые. Подробнее классификацию облаков см. в Атласе облаков (PDF).
T - Температура воздуха - температура, измеренная на высоте 2 м над землей.
Td - Температура точки росы - температура, при понижении до которой содержащийся в воздухе водяной пар достигнет насыщения.
f - Относительная влажность воздуха - влажноcть воздуха, измеренная на высоте 2 м над землей.
Te - Эффективная температура - температура, которую ощущает одетый по сезону человек в тени. Характеристика душности погоды. При расчете учитывается влияние влажности воздуха и скорости ветра на теплоощущения человека.
Tes - Эффективная температура на солнце - температура, которую ощущает человек, с поправкой на солнечный нагрев. Характеристика знойности погоды. Зависит от высоты солнца над горизонтом, облачности и скорости ветра. Ночью, в пасмурную погоду, а также при ветре 12 м/с и более поправка равна нулю.
P - Атмосферное давление - приведенное к уровню моря атмосферное давление.
Po - Атмосферное давление - измеренное на уровне метеостанции атмосферное давление.
Tmin - Минимальная температура - минимум температуры воздуха на высоте 2 м над землей.
Tmax - Максимальная температура - максимум температуры воздуха на высоте 2 м над землей.
R - Количество осадков - Количество выпавших осадков за период времени, мм. При наведении курсора мыши на число - период времени, за который выпало указанное количество осадков.
R24 - Количество осадков - Количество выпавших осадков за 24 часа, мм.
S - Снежный покров - Высота снежного покрова, см. При наведении курсора мыши на число - состояние снежного покрова и степень покрытия местности в баллах.